| time (UTC) | temp F | wind direction | speed MPH | gust MPH | rain 1hr in | rain 24hr in | rain mn in | humidity % | barometer mb |
| 20260505003524 | 58 | 91 | 0.0 | 0.0 | 0.00 | 0.00 | 0.00 | 59 | 990.9 |
| 20260505003032 | 59 | 91 | 0.0 | 0.0 | 0.00 | 0.00 | 0.00 | 58 | 990.9 |
| 20260505002541 | 59 | 91 | 0.0 | 0.0 | 0.00 | 0.00 | 0.00 | 56 | 990.8 |
| 20260505002041 | 60 | 91 | 0.0 | 0.0 | 0.00 | 0.00 | 0.00 | 55 | 990.8 |
| 20260505001539 | 61 | 91 | 0.0 | 0.0 | 0.00 | 0.00 | 0.00 | 52 | 990.8 |
| 20260505001028 | 62 | 91 | 0.0 | 0.0 | 0.00 | 0.00 | 0.00 | 51 | 990.8 |
| 20260505000527 | 63 | 91 | 0.0 | 0.0 | 0.00 | 0.00 | 0.00 | 50 | 990.7 |
| 20260505000035 | 64 | 91 | 0.0 | 0.0 | 0.00 | 0.00 | 0.00 | 49 | 990.7 |
| 20260504235524 | 65 | 91 | 0.0 | 0.0 | 0.00 | 0.00 | 0.00 | 48 | 990.7 |
| 20260504235025 | 65 | 91 | 0.0 | 0.0 | 0.00 | 0.00 | 0.00 | 46 | 990.6 |
| 20260504234534 | 66 | 91 | 0.0 | 0.0 | 0.00 | 0.00 | 0.00 | 46 | 990.6 |
| 20260504234022 | 67 | 91 | 0.0 | 0.0 | 0.00 | 0.00 | 0.00 | 45 | 990.6 |
| 20260504233524 | 67 | 91 | 0.0 | 0.0 | 0.00 | 0.00 | 0.00 | 44 | 990.5 |
| 20260504233031 | 68 | 91 | 0.0 | 0.0 | 0.00 | 0.00 | 0.00 | 42 | 990.5 |
| 20260504232542 | 68 | 91 | 0.0 | 1.0 | 0.00 | 0.00 | 0.00 | 42 | 990.5 |
| 20260504232023 | 69 | 95 | 0.0 | 5.0 | 0.00 | 0.00 | 0.00 | 41 | 990.4 |
| 20260504231534 | 70 | 25 | 0.0 | 5.0 | 0.00 | 0.00 | 0.00 | 40 | 990.4 |
| 20260504231043 | 70 | 320 | 0.0 | 5.0 | 0.00 | 0.00 | 0.00 | 39 | 990.4 |
| 20260504230526 | 71 | 245 | 0.0 | 6.0 | 0.00 | 0.00 | 0.00 | 39 | 990.3 |
| 20260504230035 | 71 | 224 | 1.0 | 8.0 | 0.00 | 0.00 | 0.00 | 38 | 990.2 |
| 20260504225545 | 72 | 198 | 2.0 | 8.0 | 0.00 | 0.00 | 0.00 | 37 | 990.1 |
| 20260504225023 | 72 | 255 | 1.0 | 6.0 | 0.00 | 0.00 | 0.00 | 38 | 990.0 |
| 20260504224534 | 72 | 240 | 2.0 | 7.0 | 0.00 | 0.00 | 0.00 | 37 | 990.0 |
| 20260504224043 | 72 | 248 | 3.0 | 7.0 | 0.00 | 0.00 | 0.00 | 37 | 990.0 |
| 20260504223526 | 72 | 232 | 1.0 | 8.0 | 0.00 | 0.00 | 0.00 | 37 | 989.9 |
| 20260504223030 | 72 | 223 | 2.0 | 8.0 | 0.00 | 0.00 | 0.00 | 37 | 990.0 |
| 20260504222531 | 72 | 263 | 1.0 | 7.0 | 0.00 | 0.00 | 0.00 | 36 | 990.0 |
| 20260504222021 | 72 | 223 | 1.0 | 6.0 | 0.00 | 0.00 | 0.00 | 38 | 990.1 |
| 20260504221532 | 73 | 238 | 1.0 | 8.0 | 0.00 | 0.00 | 0.00 | 37 | 990.0 |
| 20260504221032 | 73 | 248 | 2.0 | 8.0 | 0.00 | 0.00 | 0.00 | 35 | 990.0 |
| 20260504220524 | 74 | 229 | 2.0 | 8.0 | 0.00 | 0.00 | 0.00 | 35 | 990.0 |
| 20260504220048 | 74 | 359 | 2.0 | 7.0 | 0.00 | 0.00 | 0.00 | 34 | 990.0 |
| 20260504215530 | 74 | 248 | 3.0 | 11.0 | 0.00 | 0.00 | 0.00 | 35 | 989.9 |
| 20260504215019 | 74 | 221 | 3.0 | 10.0 | 0.00 | 0.00 | 0.00 | 33 | 989.9 |
| 20260504214520 | 75 | 290 | 2.0 | 9.0 | 0.00 | 0.00 | 0.00 | 35 | 989.9 |
| 20260504214029 | 75 | 253 | 2.0 | 9.0 | 0.00 | 0.00 | 0.00 | 35 | 990.0 |
| 20260504213540 | 74 | 203 | 2.0 | 10.0 | 0.00 | 0.00 | 0.00 | 36 | 990.0 |
| 20260504213047 | 74 | 93 | 3.0 | 10.0 | 0.00 | 0.00 | 0.00 | 34 | 990.1 |
| 20260504212528 | 74 | 22 | 2.0 | 8.0 | 0.00 | 0.00 | 0.00 | 37 | 990.0 |
| 20260504212037 | 73 | 219 | 1.0 | 10.0 | 0.00 | 0.00 | 0.00 | 35 | 990.0 |
| 20260504211538 | 74 | 89 | 3.0 | 10.0 | 0.00 | 0.00 | 0.00 | 35 | 990.1 |
| 20260504211026 | 74 | 304 | 2.0 | 13.0 | 0.00 | 0.00 | 0.00 | 34 | 990.0 |
| 20260504210547 | 74 | 243 | 5.0 | 13.0 | 0.00 | 0.00 | 0.00 | 33 | 990.1 |
| 20260504210026 | 74 | 214 | 2.0 | 7.0 | 0.00 | 0.00 | 0.00 | 34 | 990.0 |
| 20260504205532 | 74 | 266 | 1.0 | 5.0 | 0.00 | 0.00 | 0.00 | 34 | 990.1 |
| 20260504205032 | 74 | 262 | 1.0 | 10.0 | 0.00 | 0.00 | 0.00 | 35 | 990.1 |
| 20260504204521 | 74 | 226 | 4.0 | 15.0 | 0.00 | 0.00 | 0.00 | 33 | 990.1 |
| 20260504204030 | 74 | 257 | 1.0 | 10.0 | 0.00 | 0.00 | 0.00 | 35 | 990.1 |
| 20260504203529 | 74 | 252 | 3.0 | 12.0 | 0.00 | 0.00 | 0.00 | 35 | 990.2 |
| 20260504203037 | 74 | 232 | 2.0 | 11.0 | 0.00 | 0.00 | 0.00 | 35 | 990.3 |
| 20260504202524 | 74 | 233 | 2.0 | 11.0 | 0.00 | 0.00 | 0.00 | 36 | 990.3 |
| 20260504202024 | 74 | 302 | 3.0 | 7.0 | 0.00 | 0.00 | 0.00 | 36 | 990.4 |
| 20260504201535 | 74 | 338 | 2.0 | 7.0 | 0.00 | 0.00 | 0.00 | 37 | 990.4 |
| 20260504201045 | 74 | 275 | 2.0 | 7.0 | 0.00 | 0.00 | 0.00 | 37 | 990.4 |
| 20260504200527 | 73 | 249 | 3.0 | 7.0 | 0.00 | 0.00 | 0.00 | 37 | 990.5 |
| 20260504200037 | 72 | 235 | 2.0 | 8.0 | 0.00 | 0.00 | 0.00 | 39 | 990.6 |
| 20260504195546 | 72 | 151 | 3.0 | 8.0 | 0.00 | 0.00 | 0.00 | 37 | 990.7 |
| 20260504195027 | 71 | 238 | 2.0 | 11.0 | 0.00 | 0.00 | 0.00 | 41 | 990.6 |
| 20260504194537 | 71 | 231 | 2.0 | 11.0 | 0.00 | 0.00 | 0.00 | 38 | 990.7 |
| 20260504194046 | 72 | 193 | 4.0 | 9.0 | 0.00 | 0.00 | 0.00 | 37 | 990.8 |
| 20260504193529 | 72 | 254 | 3.0 | 12.0 | 0.00 | 0.00 | 0.00 | 38 | 991.0 |
| 20260504193035 | 71 | 49 | 4.0 | 12.0 | 0.00 | 0.00 | 0.00 | 37 | 990.8 |
| 20260504192531 | 71 | 293 | 2.0 | 18.0 | 0.00 | 0.00 | 0.00 | 38 | 991.0 |
| 20260504192021 | 71 | 260 | 4.0 | 18.0 | 0.00 | 0.00 | 0.00 | 39 | 991.1 |
| 20260504191528 | 72 | 302 | 5.0 | 16.0 | 0.00 | 0.00 | 0.00 | 37 | 991.0 |
| 20260504191028 | 72 | 230 | 4.0 | 11.0 | 0.00 | 0.00 | 0.00 | 37 | 991.1 |
| 20260504190540 | 71 | 306 | 3.0 | 15.0 | 0.00 | 0.00 | 0.00 | 40 | 991.1 |
| 20260504190045 | 71 | 276 | 3.0 | 11.0 | 0.00 | 0.00 | 0.00 | 39 | 991.2 |
| 20260504185526 | 71 | 309 | 5.0 | 11.0 | 0.00 | 0.00 | 0.00 | 37 | 991.2 |
| 20260504185035 | 71 | 269 | 3.0 | 14.0 | 0.00 | 0.00 | 0.00 | 39 | 991.2 |
| 20260504184545 | 71 | 286 | 5.0 | 14.0 | 0.00 | 0.00 | 0.00 | 38 | 991.2 |
| 20260504184024 | 71 | 294 | 3.0 | 12.0 | 0.00 | 0.00 | 0.00 | 39 | 991.3 |
| 20260504183536 | 70 | 243 | 4.0 | 12.0 | 0.00 | 0.00 | 0.00 | 41 | 991.3 |
| 20260504183044 | 69 | 221 | 1.0 | 9.0 | 0.00 | 0.00 | 0.00 | 44 | 991.4 |
| 20260504182524 | 69 | 248 | 2.0 | 9.0 | 0.00 | 0.00 | 0.00 | 42 | 991.4 |
| 20260504182034 | 69 | 248 | 2.0 | 11.0 | 0.00 | 0.00 | 0.00 | 41 | 991.4 |
| 20260504181543 | 70 | 63 | 2.0 | 11.0 | 0.00 | 0.00 | 0.00 | 39 | 991.4 |
| 20260504181024 | 71 | 281 | 5.0 | 11.0 | 0.00 | 0.00 | 0.00 | 38 | 991.4 |
| 20260504180535 | 71 | 23 | 4.0 | 14.0 | 0.00 | 0.00 | 0.00 | 39 | 991.4 |
| 20260504180033 | 71 | 108 | 5.0 | 14.0 | 0.00 | 0.00 | 0.00 | 39 | 991.4 |
| 20260504175522 | 71 | 247 | 3.0 | 10.0 | 0.00 | 0.00 | 0.00 | 41 | 991.4 |
| 20260504175028 | 71 | 245 | 2.0 | 13.0 | 0.00 | 0.00 | 0.00 | 40 | 991.6 |
| 20260504174530 | 71 | 155 | 2.0 | 13.0 | 0.00 | 0.00 | 0.00 | 41 | 991.6 |
| 20260504174039 | 71 | 217 | 3.0 | 12.0 | 0.00 | 0.00 | 0.00 | 42 | 991.5 |
| 20260504173550 | 70 | 139 | 2.0 | 12.0 | 0.00 | 0.00 | 0.00 | 41 | 991.5 |
| 20260504173029 | 70 | 214 | 3.0 | 9.0 | 0.00 | 0.00 | 0.00 | 42 | 991.7 |
| 20260504172539 | 69 | 213 | 3.0 | 10.0 | 0.00 | 0.00 | 0.00 | 41 | 991.7 |
| 20260504172049 | 70 | 269 | 2.0 | 10.0 | 0.00 | 0.00 | 0.00 | 41 | 991.7 |
| 20260504171530 | 69 | 274 | 3.0 | 11.0 | 0.00 | 0.00 | 0.00 | 44 | 991.8 |
| 20260504171020 | 69 | 278 | 3.0 | 11.0 | 0.00 | 0.00 | 0.00 | 42 | 991.9 |
| 20260504170522 | 68 | 260 | 2.0 | 5.0 | 0.00 | 0.00 | 0.00 | 44 | 991.9 |
| 20260504151026 | 62 | 266 | 1.0 | 5.0 | 0.00 | 0.00 | 0.00 | 52 | 993.1 |
| 20260504150538 | 61 | 269 | 1.0 | 5.0 | 0.00 | 0.00 | 0.00 | 53 | 993.2 |
| 20260504141035 | 57 | 261 | 1.0 | 4.0 | 0.00 | 0.00 | 0.00 | 56 | 993.7 |
| 20260504140546 | 57 | 254 | 1.0 | 4.0 | 0.00 | 0.00 | 0.00 | 56 | 993.9 |
| 20260504130527 | 51 | 242 | 1.0 | 3.0 | 0.00 | 0.00 | 0.00 | 64 | 993.8 |
| 20260504050538 | 47 | 278 | 0.0 | 1.0 | 0.00 | 0.00 | 0.00 | 74 | 995.0 |
| 20260504045526 | 47 | 273 | 0.0 | 2.0 | 0.00 | 0.00 | 0.00 | 74 | 995.0 |
| 20260504045036 | 47 | 219 | 0.0 | 5.0 | 0.00 | 0.00 | 0.00 | 74 | 995.1 |
| 20260504044526 | 46 | 236 | 1.0 | 5.0 | 0.00 | 0.00 | 0.00 | 74 | 995.2 |
| 20260504044027 | 46 | 238 | 0.0 | 3.0 | 0.00 | 0.00 | 0.00 | 74 | 995.2 |
| 20260504043539 | 46 | 239 | 0.0 | 3.0 | 0.00 | 0.00 | 0.00 | 74 | 995.2 |
| 20260504043047 | 46 | 231 | 0.0 | 2.0 | 0.00 | 0.00 | 0.00 | 73 | 995.2 |
| 20260504042529 | 46 | 252 | 0.0 | 1.0 | 0.00 | 0.00 | 0.00 | 73 | 995.4 |
| 20260504042036 | 46 | 259 | 0.0 | 0.0 | 0.00 | 0.00 | 0.00 | 73 | 995.4 |
| 20260504041545 | 46 | 259 | 0.0 | 2.0 | 0.00 | 0.00 | 0.00 | 72 | 995.4 |
| 20260504041026 | 46 | 99 | 0.0 | 0.0 | 0.00 | 0.00 | 0.00 | 72 | 995.4 |
| 20260504040538 | 45 | 266 | 0.0 | 0.0 | 0.00 | 0.00 | 0.00 | 71 | 995.4 |
| 20260504040046 | 45 | 266 | 0.0 | 0.0 | 0.00 | 0.00 | 0.00 | 70 | 995.5 |
| 20260504035527 | 45 | 266 | 0.0 | 2.0 | 0.00 | 0.00 | 0.00 | 70 | 995.4 |
| 20260504035037 | 44 | 266 | 1.0 | 2.0 | 0.00 | 0.00 | 0.00 | 70 | 995.5 |
| 20260504034538 | 44 | 235 | 0.0 | 0.0 | 0.00 | 0.00 | 0.00 | 68 | 995.4 |
| 20260504034027 | 45 | 235 | 0.0 | 0.0 | 0.00 | 0.00 | 0.00 | 66 | 995.3 |
| 20260504033539 | 45 | 235 | 0.0 | 1.0 | 0.00 | 0.00 | 0.00 | 65 | 995.3 |
| 20260504033038 | 45 | 235 | 0.0 | 1.0 | 0.00 | 0.00 | 0.00 | 64 | 995.3 |
| 20260504032527 | 45 | 235 | 0.0 | 1.0 | 0.00 | 0.00 | 0.00 | 63 | 995.3 |
| 20260504032038 | 45 | 235 | 0.0 | 1.0 | 0.00 | 0.00 | 0.00 | 62 | 995.3 |
| 20260504031539 | 45 | 235 | 0.0 | 1.0 | 0.00 | 0.00 | 0.00 | 62 | 995.2 |
| 20260504031026 | 45 | 277 | 0.0 | 3.0 | 0.00 | 0.00 | 0.00 | 62 | 995.2 |
| 20260504030528 | 45 | 254 | 1.0 | 3.0 | 0.00 | 0.00 | 0.00 | 62 | 995.2 |
| 20260504030036 | 44 | 222 | 0.0 | 1.0 | 0.00 | 0.00 | 0.00 | 60 | 995.2 |
| 20260504025526 | 43 | 238 | 0.0 | 1.0 | 0.00 | 0.00 | 0.00 | 60 | 995.2 |
| 20260504025025 | 43 | 264 | 0.0 | 1.0 | 0.00 | 0.00 | 0.00 | 59 | 995.1 |
| 20260504024529 | 42 | 264 | 0.0 | 1.0 | 0.00 | 0.00 | 0.00 | 59 | 995.1 |
| 20260504024039 | 42 | 264 | 0.0 | 0.0 | 0.00 | 0.00 | 0.00 | 59 | 995.1 |
| 20260504023550 | 41 | 264 | 0.0 | 0.0 | 0.00 | 0.00 | 0.00 | 59 | 995.1 |
| 20260504023028 | 41 | 264 | 0.0 | 0.0 | 0.00 | 0.00 | 0.00 | 59 | 995.1 |
| 20260504022537 | 41 | 264 | 0.0 | 0.0 | 0.00 | 0.00 | 0.00 | 59 | 995.2 |
| 20260504022047 | 41 | 264 | 0.0 | 0.0 | 0.00 | 0.00 | 0.00 | 59 | 995.1 |
| 20260504021526 | 41 | 264 | 0.0 | 0.0 | 0.00 | 0.00 | 0.00 | 59 | 995.0 |
| 20260504021037 | 42 | 264 | 0.0 | 0.0 | 0.00 | 0.00 | 0.00 | 57 | 995.1 |
| 20260504020536 | 42 | 264 | 0.0 | 0.0 | 0.00 | 0.00 | 0.00 | 58 | 995.1 |
| 20260504020024 | 43 | 264 | 0.0 | 0.0 | 0.00 | 0.00 | 0.00 | 55 | 995.1 |
| 20260504015534 | 43 | 264 | 0.0 | 0.0 | 0.00 | 0.00 | 0.00 | 54 | 995.1 |
| 20260504015102 | 44 | 264 | 0.0 | 0.0 | 0.00 | 0.00 | 0.00 | 53 | 995.2 |
| 20260504014609 | 44 | 264 | 0.0 | 0.0 | 0.00 | 0.00 | 0.00 | 53 | 995.2 |
| 20260504014057 | 45 | 264 | 0.0 | 1.0 | 0.00 | 0.00 | 0.00 | 51 | 995.2 |
| 20260504013603 | 45 | 264 | 0.0 | 1.0 | 0.00 | 0.00 | 0.00 | 50 | 995.1 |
| 20260504013108 | 45 | 264 | 0.0 | 1.0 | 0.00 | 0.00 | 0.00 | 51 | 995.1 |
| 20260504012544 | 45 | 264 | 0.0 | 2.0 | 0.00 | 0.00 | 0.00 | 50 | 995.1 |
| 20260504012101 | 46 | 264 | 0.0 | 2.0 | 0.00 | 0.00 | 0.00 | 49 | 995.1 |
| 20260504011608 | 46 | 326 | 0.0 | 0.0 | 0.00 | 0.00 | 0.00 | 48 | 995.0 |
| 20260504011044 | 47 | 326 | 0.0 | 0.0 | 0.00 | 0.00 | 0.00 | 45 | 994.9 |
| 20260504010603 | 48 | 326 | 0.0 | 2.0 | 0.00 | 0.00 | 0.00 | 43 | 994.9 |
| 20260504010105 | 48 | 326 | 0.0 | 6.0 | 0.00 | 0.00 | 0.00 | 42 | 994.9 |
| 20260504005543 | 48 | 200 | 1.0 | 6.0 | 0.00 | 0.00 | 0.00 | 43 | 994.8 |
| 20260504005031 | 48 | 269 | 1.0 | 3.0 | 0.00 | 0.00 | 0.00 | 43 | 994.7 |
| 20260504004541 | 48 | 262 | 1.0 | 3.0 | 0.00 | 0.00 | 0.00 | 42 | 994.7 |
| 20260504004021 | 48 | 113 | 0.0 | 2.0 | 0.00 | 0.00 | 0.00 | 42 | 994.6 |